Flag for India Weather past 2 weeks in Bhinga, Uttar Pradesh, India

Now
88 °F

Passing clouds.


Feels Like: 105 °F
Forecast: 82 / 96 °F
Wind: 3 mph from East

Location: Lucknow / Amausi

Current Time: Aug 3, 2015 at 11:19:57 PM

Latest Report: Aug 3, 2015 at 10:00 PM


Visibility: 3 mi

Pressure: 29.62 "Hg

Humidity: 79%

Dew point: 81 °F

Location of BhingaLocation

Historic Weather in Bhinga — Graph

°F

Bhinga temperature yesterday

Maximum temperature yesterday: 95 °F (at 5:00 PM)
Minimum temperature yesterday: 79 °F (at 4:00 AM)
Average temperature yesterday: 86 °F

Past Weeks' High & Low Weather Summary

 TemperatureHumidityPressure
High97 °F (Jul 28, 5:30 PM)100% (Jul 24, 6:30 PM)29.71 "Hg (Jul 24, 6:30 PM)
Low79 °F (Jul 24, 3:30 PM)53% (Jul 28, 5:30 PM)29.42 "Hg (Jul 20, 4:00 PM)
Average87 °F78%29.57 "Hg
* Reported Jul 19 8:30 PM — Aug 3 9:00 PM, Bhinga, Weather by CustomWeather, © 2015

Note: Actual official high and low records may vary slightly from our data, if they occured in-between our weather recording intervals... More about our weather records

Advertising

Bhinga weather history for previous 24 hours

 ConditionsComfort  
Time TempWeatherWind HumidityBarometerVisibility
9:00 PM
Mon, Aug 3
90 °FPassing clouds.3 mph75%29.59 "Hg3 mi
8:30 PM90 °FPassing clouds.3 mph75%29.59 "Hg3 mi
7:30 PM91 °FPartly cloudy.6 mph71%29.56 "Hg3 mi
6:30 PM93 °FBroken clouds.6 mph67%29.53 "Hg4 mi
5:30 PM95 °FScattered clouds.8 mph63%29.53 "Hg4 mi
5:00 PM95 °FScattered clouds.5 mph63%29.50 "Hg4 mi
4:00 PM95 °FBroken clouds.5 mph63%29.53 "Hg4 mi
2:30 PM97 °FBroken clouds.6 mph56%29.56 "Hg4 mi
12:00 PM95 °FScattered clouds.5 mph63%29.62 "Hg4 mi
11:30 AM93 °FScattered clouds.5 mph71%29.62 "Hg3 mi
11:00 AM95 °FScattered clouds.7 mph63%29.62 "Hg3 mi
10:30 AM93 °FScattered clouds.5 mph67%29.62 "Hg3 mi
10:00 AM93 °FScattered clouds.5 mph67%29.65 "Hg2 mi
9:30 AM91 °FScattered clouds.3 mph71%29.65 "Hg2 mi
9:00 AM91 °FHaze.3 mph75%29.62 "Hg2 mi
8:30 AM88 °FHaze.3 mph75%29.62 "Hg2 mi
8:00 AM88 °FHaze.3 mph79%29.62 "Hg2 mi
7:30 AM86 °FHaze.2 mph84%29.62 "Hg2 mi
6:30 AM82 °FPartly sunny.No wind89%29.62 "Hg1 mi
6:00 AM81 °FPassing clouds.No wind94%29.62 "Hg1 mi
5:30 AM81 °FPassing clouds.No wind94%29.62 "Hg1 mi
5:00 AM81 °FPassing clouds.No wind94%29.59 "Hg1 mi
4:00 AM81 °FHaze.No wind94%29.59 "Hg1 mi
3:00 AM82 °FHaze.No wind89%29.59 "Hg1 mi
2:00 AM82 °FHaze.2 mph89%29.59 "Hg2 mi
1:00 AM82 °FPassing clouds.2 mph89%29.62 "Hg2 mi
12:00 AM82 °FPassing clouds.2 mph89%29.62 "Hg2 mi
Weather by CustomWeather, © 2015

See weather overviewHow to use our weather pages